#timestamp,LO_Frequency,Hit,StdDev 
1700283615.7,286047002.7,N
1700283635.5,286047001.9,N
1700283655.3,286047001.3,N
1700283675.2,286047001.8,N
1700283695.0,286047001.3,N
1700283695.9,286047001.3,N
1700283715.7,286047001.4,N
1700283735.6,286047001.5,N
1700283755.4,286046999.7,N
1700283775.3,286047002.6,N
1700283795.1,286047001.9,N
1700283796.0,286047001.9,N
1700283815.8,286047002.2,N
1700283835.7,286047001.8,N
1700283855.5,286046999.9,N
1700283875.3,286047002.6,N
1700283895.2,286047003.9,Y
1700283915.0,286047001.8,P
1700283915.9,286047001.8,P
1700283935.8,286047001.4,P
1700283955.6,286047004.2,Y
1700283975.4,286047002.0,P
1700283995.3,286047001.7,P
1700284015.1,286047003.9,P
1700284035.9,286047004.2,Y
1700284055.7,286047000.9,P
1700284075.5,286046998.1,N
1700284095.4,286046998.9,N
1700284115.2,286047001.2,N
1700284135.0,286046999.3,N
1700284136.0,286046999.3,N
1700284155.8,286046999.0,N
1700284175.6,286046999.1,N
1700284195.5,286046999.6,N
1700284215.3,286046999.5,N
1700284235.1,286046999.0,N
1700284255.9,286046999.1,N
1700284275.7,286046998.9,N
1700284295.5,286046999.4,N
1700284315.4,286046999.6,N
1700284335.2,286046999.6,N
1700284355.1,286046999.1,N
1700284356.0,286046999.1,N
1700284375.8,286046999.3,N
1700284395.6,286046999.2,N
1700284415.5,286046996.8,Y
1700284435.3,286047001.2,P
1700284455.2,286047001.2,N
1700284475.9,286046999.0,N
1700284495.7,286047000.7,N
1700284515.6,286047000.7,N
1700284535.4,286047000.7,N
1700284555.2,286047000.9,N
1700284575.1,286047001.0,N
1700284576.0,286047001.0,N
1700284595.8,286046999.2,N
1700284615.7,286046997.0,Y
1700284635.5,286046999.3,P
1700284655.3,286046997.0,P
1700284675.2,286046996.8,N
1700284695.9,286046996.5,N
1700284715.7,286046999.6,N
1700284735.6,286046999.0,N
1700284755.4,286047000.7,N
1700284775.3,286046998.7,N
1700284795.1,286046998.1,N
1700284796.0,286046998.1,N
1700284815.8,286046998.9,N
1700284835.7,286046998.1,N
1700284855.5,286046998.7,N
1700284875.3,286046999.5,N
1700284895.2,286046999.1,N
1700284915.0,286046997.2,N
1700284915.9,286046997.2,N
1700284935.8,286046996.6,N
1700284955.6,286046996.5,N
1700284975.4,286046996.7,N
1700284995.3,286046999.4,N
1700285015.1,286047000.5,N
1700285035.8,286046998.9,N
1700285055.7,286046999.2,N
1700285075.5,286046999.0,N
1700285095.4,286046999.6,N
1700285115.2,286046999.5,N
1700285135.0,286046996.9,N
1700285135.9,286046996.9,N
1700285155.8,286046999.2,N
1700285175.6,286046996.6,N
1700285195.4,286046997.1,N
1700285215.3,286046997.4,N
1700285235.1,286046997.5,N
1700285255.9,286046995.0,Y
1700285275.7,286046996.6,P
1700285295.5,286046997.6,N
1700285315.4,286046997.7,P
1700285335.2,286046997.1,Y
1700285355.1,286046998.2,P
1700285356.0,286046998.2,P
1700285375.8,286047000.8,N
1700285395.6,286046999.0,N
1700285415.5,286046999.8,N
1700285435.3,286047000.6,N
1700285455.1,286047000.5,N
1700285475.9,286047000.0,N
1700285495.7,286047002.5,N
1700285515.6,286047004.4,Y
1700285535.4,286047003.7,P
1700285555.2,286047003.3,N
1700285575.1,286047005.6,P
1700285576.0,286047005.6,N
1700285595.8,286047003.8,N
1700285615.7,286047004.2,N
1700285635.5,286047001.4,N
1700285655.3,286047004.2,N
1700285675.2,286047003.7,N
1700285695.0,286047004.0,N
1700285695.9,286047004.0,N
1700285715.8,286047003.9,N
1700285735.6,286047002.0,N
1700285755.4,286047001.8,N
1700285775.3,286047001.4,N
1700285795.1,286047004.2,N
1700285815.8,286047004.4,N
1700285835.7,286047001.7,N
1700285855.5,286047004.3,N
1700285875.4,286047004.3,N
1700285895.2,286047004.2,N
1700285915.0,286047004.2,N
1700285915.9,286047004.2,N
1700285935.8,286047003.8,N
1700285955.6,286047002.0,N
1700285975.5,286047001.5,N
1700285995.3,286047001.6,N
1700286015.1,286047001.8,N
1700286035.9,286047001.7,N
1700286055.7,286047002.1,N
1700286075.5,286047002.0,N
1700286095.4,286047001.7,N
1700286115.2,286047004.0,Y
1700286135.1,286047000.0,P
1700286136.0,286047000.0,N
1700286155.8,286047000.8,N
1700286175.6,286046999.5,N
1700286195.5,286046997.1,N
1700286215.3,286046997.7,N
1700286235.1,286046999.3,N
1700286255.9,286046998.6,N
1700286275.7,286046998.9,N
1700286295.6,286046999.3,N
1700286315.4,286046998.8,N
1700286335.2,286046999.0,N
1700286355.1,286047000.7,N
1700286356.0,286047000.7,N
1700286375.8,286047001.0,N
1700286395.7,286047000.9,N
1700286415.5,286047001.0,N
1700286435.3,286047000.2,N
1700286455.2,286047000.7,N
1700286475.9,286047001.0,N
1700286495.7,286046999.9,N
1700286515.6,286047000.3,N
1700286535.4,286047000.9,N
1700286555.2,286047000.6,N
1700286575.1,286047000.8,N
1700286576.0,286047000.8,N
1700286595.8,286047002.8,N
1700286615.7,286047000.6,N
1700286635.5,286047000.5,N
1700286655.3,286047001.1,N
1700286675.2,286047000.5,N
1700286695.0,286047002.8,N
1700286695.9,286047002.8,N
1700286715.8,286047002.7,N
1700286735.6,286046999.7,N
1700286755.4,286047000.5,N
1700286775.3,286047002.6,N
1700286795.1,286047001.4,N
1700286815.8,286047002.2,N
1700286835.7,286047002.4,N
1700286855.5,286047002.7,N
1700286875.4,286047000.0,N
1700286895.2,286046998.2,N
1700286915.0,286047000.6,N
1700286915.9,286047000.6,N
1700286935.8,286047000.7,N
1700286955.1,286047002.7,N
1700286975.9,286047002.5,N
1700286995.7,286046999.9,N
1700287015.5,286047002.5,N
1700287035.4,286047002.1,N
1700287055.2,286047002.8,N
1700287075.1,286047002.4,N
1700287076.0,286047002.4,N
1700287095.8,286047001.4,N
1700287115.6,286047004.0,Y
1700287135.5,286047000.4,P
1700287155.3,286046999.9,N
1700287175.1,286047001.0,N
1700287195.9,286047000.3,N
